Location: Del Amo
(33.8464°N, 118.2104°W)
Time: 22:25:27
(UTC+00:00)

Transit 2A - All Passes

Search period start: 11 September 2024 00:00
Search period end: 21 September 2024 00:00
Orbit: 590 x 961 km, 66.7° (Epoch: 10 September)

Date Brightness Start Highest point End Pass type
(mag) Time Alt. Az. Time Alt. Az. Time Alt. Az.
11 Sep - 01:47:46 10° SSE 01:51:39 19° ESE 01:55:45 10° ENE daylight
11 Sep - 03:28:36 10° SW 03:34:12 55° WNW 03:40:18 10° NNE visible
11 Sep - 12:19:17 10° NNW 12:25:24 59° ENE 12:31:00 10° SE visible
11 Sep - 14:04:04 10° WNW 14:07:53 18° WSW 14:11:30 10° SW daylight
12 Sep - 01:14:40 10° ESE 01:16:35 12° E 01:18:34 10° E daylight
12 Sep - 02:53:03 10° SSW 02:58:45 82° WNW 03:04:59 10° NNE visible
12 Sep - 04:40:02 10° WNW 04:42:58 14° NW 04:45:58 10° NNW visible
12 Sep - 11:44:05 10° NNW 11:49:53 40° ENE 11:55:14 10° SE visible
12 Sep - 13:27:47 10° NW 13:32:46 27° WSW 13:37:25 10° SSW daylight
13 Sep - 02:17:47 10° SSW 02:23:23 67° ESE 02:29:32 10° NNE visible
13 Sep - 04:03:00 10° W 04:07:10 19° NW 04:11:32 10° N visible
13 Sep - 11:09:03 10° N 11:14:16 28° NE 11:19:10 10° ESE visible
13 Sep - 12:51:54 10° NW 12:57:35 42° WSW 13:02:47 10° S visible
14 Sep - 01:42:47 10° S 01:48:07 44° ESE 01:53:55 10° NE daylight
14 Sep - 03:26:31 10° WSW 03:31:27 27° NW 03:36:42 10° N visible
14 Sep - 10:34:13 10° N 10:38:34 20° NE 10:42:42 10° E visible
14 Sep - 12:16:15 10° NNW 12:22:19 65° WSW 12:27:48 10° SSE visible
15 Sep - 01:08:08 10° SSE 01:12:55 29° ESE 01:18:03 10° NE daylight
15 Sep - 02:50:26 10° SW 02:55:50 39° WNW 03:01:39 10° NNE visible
15 Sep - 09:59:46 10° NNE 10:02:46 14° NE 10:05:41 10° ENE visible
15 Sep - 11:40:47 10° NNW 11:46:56 84° ENE 11:52:32 10° SSE visible
15 Sep - 13:27:37 10° W 13:29:04 11° W 13:30:29 10° WSW daylight
16 Sep - 00:33:57 10° SE 00:37:47 18° ESE 00:41:48 10° ENE daylight
16 Sep - 02:14:37 10° SW 02:20:18 58° WNW 02:26:27 10° NNE visible
16 Sep - 11:05:26 10° NNW 11:11:29 56° ENE 11:17:00 10° SE visible
16 Sep - 12:50:06 10° WNW 12:53:59 18° WSW 12:57:41 10° SW visible
17 Sep - 00:01:02 10° ESE 00:02:42 11° E 00:04:23 10° E daylight
17 Sep - 01:39:05 10° SSW 01:44:50 85° WNW 01:51:07 10° NNE daylight
17 Sep - 03:25:50 10° WNW 03:28:59 14° NW 03:32:13 10° NNW visible
17 Sep - 10:30:14 10° N 10:35:56 38° ENE 10:41:11 10° SE visible
17 Sep - 12:13:49 10° NW 12:18:51 28° WSW 12:23:30 10° SSW visible
18 Sep - 01:03:49 10° SSW 01:09:28 65° ESE 01:15:37 10° NNE daylight
18 Sep - 02:48:52 10° W 02:53:11 20° NW 02:57:42 10° N visible
18 Sep - 09:55:12 10° N 10:00:18 26° NE 10:05:03 10° ESE visible
18 Sep - 11:37:57 10° NW 11:43:38 44° WSW 11:48:50 10° S visible
19 Sep - 00:28:49 10° S 00:34:10 42° ESE 00:39:58 10° NE daylight
19 Sep - 02:12:26 10° WSW 02:17:28 29° NW 02:22:49 10° N visible
19 Sep - 09:20:22 10° N 09:24:34 19° NE 09:28:32 10° E visible
19 Sep - 11:02:18 10° NNW 11:08:20 68° WSW 11:13:48 10° SSE night (unlit)
19 Sep - 23:54:11 10° SSE 23:58:58 28° ESE 00:04:03 10° NE daylight
20 Sep - 01:36:20 10° SW 01:41:51 41° WNW 01:47:44 10° NNE daylight
20 Sep - 08:46:00 10° NNE 08:48:44 13° NE 08:51:23 10° ENE visible
20 Sep - 10:26:50 10° NNW 10:32:58 81° ENE 10:38:30 10° SSE night (unlit)
20 Sep - 12:13:21 10° W 12:15:06 11° W 12:16:48 10° WSW night (unlit)
20 Sep - 23:20:03 10° SE 23:23:48 18° ESE 23:27:43 10° ENE daylight
